BCS41G EETN-LBSF

Flight info

Callsign BCS41G
Flight time 2h 32m
Altitude 36000
Route NITSO DCT DOLAT DCT ROLAV DCT PELUT DCT BOKSU DCT TOXAR/N0447F370 DCT LIBGA/N0447F380 DCT ROBTU/N0447F370 DCT KENIN DCT BADOR DCT OSTOV DCT GOL
Aircraft B738/M-SDE1E2E3FGHIRWXY/LB1

Departure

Time 2026-05-04 16:22
Airport Lennart Meri Tallinn Airport (EETN)

Arrival

Time 2026-05-04 18:55
Airport Sofia Airport (LBSF)
Time Latitude Longitude Altitude Speed Heading
2026-05-04 15:52 59.41604 24.81489 161 ft 0 kts 90°
2026-05-04 16:12 59.41604 24.81487 161 ft 2 kts 90°
2026-05-04 16:12 59.41575 24.81405 161 ft 1 kts
2026-05-04 16:15 59.41622 24.81406 161 ft 9 kts
2026-05-04 16:16 59.41747 24.81377 161 ft 9 kts 304°
2026-05-04 16:16 59.41576 24.81181 161 ft 13 kts 180°
2026-05-04 16:17 59.41504 24.81499 161 ft 21 kts 91°
2026-05-04 16:18 59.41501 24.82575 161 ft 26 kts 90°
2026-05-04 16:18 59.41500 24.82924 161 ft 25 kts 90°
2026-05-04 16:19 59.41498 24.83859 161 ft 22 kts 90°
2026-05-04 16:19 59.41496 24.84443 161 ft 23 kts 90°
2026-05-04 16:20 59.41349 24.85007 161 ft 13 kts 192°
2026-05-04 16:20 59.41322 24.84933 161 ft 0 kts 268°
2026-05-04 16:21 59.41321 24.84847 161 ft 29 kts 269°
2026-05-04 16:22 59.41326 24.82205 178 ft 153 kts 270°
2026-05-04 16:22 59.40849 24.76250 2517 ft 151 kts 224°
2026-05-04 16:23 59.37313 24.76170 3178 ft 233 kts 175°
2026-05-04 16:24 59.30239 24.78861 5643 ft 266 kts 175°
2026-05-04 16:25 59.26592 24.80239 7140 ft 271 kts 176°
2026-05-04 16:26 59.18992 24.83067 9971 ft 285 kts 177°
2026-05-04 16:26 59.12517 24.85423 10540 ft 347 kts 175°
2026-05-04 16:27 59.07643 24.87230 11622 ft 360 kts 175°
2026-05-04 16:28 59.00194 24.89986 13751 ft 367 kts 175°
2026-05-04 16:28 58.92638 24.92748 15777 ft 372 kts 176°
2026-05-04 16:29 58.82242 24.96516 18196 ft 385 kts 176°
2026-05-04 16:30 58.74300 24.97491 19834 ft 383 kts 187°
2026-05-04 16:31 58.68928 24.97371 20877 ft 388 kts 187°
2026-05-04 16:31 58.60719 24.97379 22406 ft 396 kts 186°
2026-05-04 16:32 58.52621 24.97507 23632 ft 405 kts 186°
2026-05-04 16:33 58.46951 24.97611 24445 ft 408 kts 186°
2026-05-04 16:33 58.41279 24.97712 25179 ft 412 kts 186°
2026-05-04 16:34 58.35561 24.97813 25896 ft 416 kts 186°
2026-05-04 16:34 58.32673 24.97863 26237 ft 418 kts 186°
2026-05-04 16:35 58.23853 24.98013 27103 ft 426 kts 186°
2026-05-04 16:35 58.14949 24.98168 28105 ft 430 kts 186°
2026-05-04 16:36 58.11942 24.98219 28396 ft 432 kts 186°
2026-05-04 16:36 58.05924 24.98325 29285 ft 429 kts 186°
2026-05-04 16:37 58.00087 24.97723 30090 ft 417 kts 197°
2026-05-04 16:37 57.97305 24.96343 30320 ft 412 kts 204°
2026-05-04 16:37 57.91840 24.93077 30892 ft 413 kts 203°
2026-05-04 16:38 57.86419 24.89901 31506 ft 412 kts 202°
2026-05-04 16:39 57.78183 24.85136 32379 ft 412 kts 202°
2026-05-04 16:39 57.72703 24.81985 32947 ft 412 kts 202°
2026-05-04 16:40 57.67252 24.78860 33441 ft 413 kts 202°
2026-05-04 16:40 57.61781 24.75733 33973 ft 412 kts 202°
2026-05-04 16:41 57.56288 24.72602 34341 ft 414 kts 201°
2026-05-04 16:41 57.48058 24.67931 34942 ft 415 kts 201°
2026-05-04 16:42 57.39746 24.63236 35413 ft 418 kts 201°
2026-05-04 16:43 57.34187 24.60109 35805 ft 417 kts 201°
2026-05-04 16:43 57.25864 24.55445 35794 ft 419 kts 201°
2026-05-04 16:45 57.09395 24.46286 35803 ft 411 kts 201°
2026-05-04 16:46 56.95706 24.38729 35816 ft 414 kts 201°
2026-05-04 16:47 56.84611 24.32649 35810 ft 418 kts 201°
2026-05-04 16:48 56.73432 24.26562 35821 ft 422 kts 201°
2026-05-04 16:49 56.62149 24.20458 35828 ft 423 kts 202°
2026-05-04 16:50 56.50885 24.14400 35841 ft 422 kts 202°
2026-05-04 16:51 56.42440 24.09881 35852 ft 421 kts 202°
2026-05-04 16:52 56.31262 24.03929 35856 ft 419 kts 202°
2026-05-04 16:53 56.22846 23.99600 35862 ft 419 kts 201°
2026-05-04 16:54 56.11667 23.93982 35850 ft 418 kts 201°
2026-05-04 16:55 55.94853 23.85545 35876 ft 419 kts 201°
2026-05-04 16:56 55.80816 23.78558 35877 ft 420 kts 201°
2026-05-04 16:57 55.72362 23.74374 35889 ft 422 kts 200°
2026-05-04 16:58 55.61035 23.68798 35867 ft 423 kts 200°
2026-05-04 17:00 55.44095 23.60515 35904 ft 424 kts 201°
2026-05-04 17:01 55.29959 23.53536 35916 ft 423 kts 201°
2026-05-04 17:02 55.18655 23.47981 35914 ft 424 kts 201°
2026-05-04 17:03 55.10191 23.43845 35891 ft 425 kts 201°
2026-05-04 17:03 55.01677 23.39704 35915 ft 425 kts 201°
2026-05-04 17:04 54.90274 23.34184 35922 ft 426 kts 201°
2026-05-04 17:05 54.78857 23.28690 35918 ft 427 kts 200°
2026-05-04 17:06 54.70250 23.24570 35924 ft 428 kts 200°
2026-05-04 17:07 54.62581 23.20913 35924 ft 429 kts 200°
2026-05-04 17:07 54.55886 23.17733 35910 ft 428 kts 200°
2026-05-04 17:08 54.47245 23.13642 35922 ft 429 kts 200°
2026-05-04 17:09 54.41521 23.10942 35920 ft 430 kts 200°
2026-05-04 17:09 54.35756 23.08229 35918 ft 430 kts 200°
2026-05-04 17:10 54.21067 23.02705 35916 ft 434 kts 194°
2026-05-04 17:11 54.15114 23.00892 35911 ft 435 kts 194°
2026-05-04 17:12 54.07187 22.98418 35885 ft 435 kts 194°
2026-05-04 17:13 53.92309 22.93736 35911 ft 435 kts 194°
2026-05-04 17:14 53.80409 22.90014 35910 ft 436 kts 194°
2026-05-04 17:15 53.71449 22.87227 35904 ft 436 kts 194°
2026-05-04 17:16 53.59557 22.83546 35907 ft 435 kts 194°
2026-05-04 17:17 53.47624 22.79874 35904 ft 435 kts 194°
2026-05-04 17:18 53.35739 22.76235 35902 ft 436 kts 194°
2026-05-04 17:19 53.23836 22.72613 35906 ft 437 kts 194°
2026-05-04 17:20 53.11938 22.69013 35905 ft 438 kts 194°
2026-05-04 17:20 53.02910 22.66294 35901 ft 439 kts 194°
2026-05-04 17:21 52.90879 22.62689 35911 ft 440 kts 194°
2026-05-04 17:22 52.84853 22.60890 35906 ft 440 kts 194°
2026-05-04 17:23 52.72801 22.57307 35913 ft 440 kts 193°
2026-05-04 17:24 52.63740 22.54624 35908 ft 441 kts 193°
2026-05-04 17:25 52.51535 22.51937 35912 ft 442 kts 189°
2026-05-04 17:26 52.39321 22.49751 35918 ft 442 kts 189°
2026-05-04 17:27 52.24049 22.46887 35925 ft 442 kts 189°
2026-05-04 17:28 52.11834 22.44606 35924 ft 443 kts 189°
2026-05-04 17:29 51.93469 22.41202 35929 ft 443 kts 189°
2026-05-04 17:31 51.78159 22.38386 35931 ft 443 kts 189°
2026-05-04 17:32 51.62831 22.35585 35937 ft 445 kts 189°
2026-05-04 17:33 51.50502 22.33346 35941 ft 446 kts 188°
2026-05-04 17:34 51.38178 22.31120 35940 ft 447 kts 188°
2026-05-04 17:35 51.22713 22.28344 35944 ft 448 kts 188°
2026-05-04 17:36 51.16514 22.27236 35948 ft 447 kts 188°
2026-05-04 17:36 51.10321 22.26132 35952 ft 447 kts 188°
2026-05-04 17:37 51.04170 22.25038 35944 ft 447 kts 188°
2026-05-04 17:37 50.97980 22.23940 35952 ft 447 kts 188°
2026-05-04 17:38 50.91801 22.22846 35959 ft 447 kts 188°
2026-05-04 17:38 50.85606 22.21751 35953 ft 447 kts 188°
2026-05-04 17:39 50.76354 22.19970 35963 ft 448 kts 189°
2026-05-04 17:39 50.70160 22.18617 35962 ft 449 kts 189°
2026-05-04 17:40 50.64005 22.17280 35968 ft 449 kts 189°
2026-05-04 17:40 50.57788 22.15952 35966 ft 450 kts 189°
2026-05-04 17:41 50.51558 22.14634 35971 ft 451 kts 189°
2026-05-04 17:41 50.45360 22.13327 35971 ft 451 kts 189°
2026-05-04 17:42 50.39122 22.12015 35978 ft 452 kts 189°
2026-05-04 17:42 50.32874 22.10704 35984 ft 452 kts 189°
2026-05-04 17:43 50.26641 22.09399 35991 ft 452 kts 189°
2026-05-04 17:43 50.20438 22.08104 35994 ft 452 kts 189°
2026-05-04 17:44 50.14186 22.06803 35982 ft 453 kts 189°
2026-05-04 17:44 50.07924 22.05501 35997 ft 453 kts 188°
2026-05-04 17:45 50.01695 22.04211 35995 ft 454 kts 188°
2026-05-04 17:45 49.95390 22.03242 35998 ft 456 kts 184°
2026-05-04 17:46 49.89008 22.02885 36305 ft 459 kts 182°
2026-05-04 17:46 49.85837 22.02736 36608 ft 457 kts 183°
2026-05-04 17:46 49.82685 22.02571 36895 ft 455 kts 183°
2026-05-04 17:47 49.79517 22.02383 37005 ft 457 kts 183°
2026-05-04 17:47 49.76328 22.02178 37003 ft 459 kts 184°
2026-05-04 17:47 49.69968 22.01743 36997 ft 455 kts 184°
2026-05-04 17:48 49.63653 22.01302 36999 ft 453 kts 184°
2026-05-04 17:48 49.57359 22.00864 37029 ft 454 kts 184°
2026-05-04 17:49 49.50986 22.00423 37026 ft 460 kts 184°
2026-05-04 17:49 49.44609 21.99987 37025 ft 462 kts 183°
2026-05-04 17:50 49.38150 21.99544 37026 ft 464 kts 183°
2026-05-04 17:50 49.31678 21.99102 37024 ft 465 kts 183°
2026-05-04 17:51 49.25253 21.98664 37024 ft 465 kts 183°
2026-05-04 17:51 49.18783 21.98225 37019 ft 464 kts 183°
2026-05-04 17:52 49.12341 21.97788 37025 ft 462 kts 183°
2026-05-04 17:52 49.05912 21.97353 37029 ft 461 kts 183°
2026-05-04 17:53 48.99547 21.96924 37026 ft 459 kts 183°
2026-05-04 17:53 48.93162 21.96494 37039 ft 458 kts 183°
2026-05-04 17:54 48.86785 21.96066 37036 ft 458 kts 183°
2026-05-04 17:54 48.80418 21.95641 37026 ft 457 kts 183°
2026-05-04 17:55 48.74091 21.95217 37024 ft 457 kts 183°
2026-05-04 17:55 48.67728 21.94792 37033 ft 458 kts 183°
2026-05-04 17:56 48.61341 21.94368 37034 ft 458 kts 183°
2026-05-04 17:56 48.56033 21.94145 37023 ft 460 kts 176°
2026-05-04 17:57 48.48620 21.95386 37023 ft 461 kts 173°
2026-05-04 17:57 48.43320 21.96406 37036 ft 462 kts 173°
2026-05-04 17:58 48.36905 21.97564 37035 ft 463 kts 174°
2026-05-04 17:58 48.30519 21.98654 37042 ft 464 kts 173°
2026-05-04 17:59 48.24084 21.99734 37034 ft 465 kts 174°
2026-05-04 18:00 48.14401 22.01356 37038 ft 466 kts 174°
2026-05-04 18:00 48.07978 22.02431 37047 ft 466 kts 174°
2026-05-04 18:01 48.01515 22.03511 37041 ft 467 kts 174°
2026-05-04 18:01 47.95051 22.04588 37047 ft 467 kts 174°
2026-05-04 18:02 47.87437 22.05852 37049 ft 466 kts 174°
2026-05-04 18:02 47.80983 22.06921 37048 ft 466 kts 173°
2026-05-04 18:03 47.74531 22.07987 37050 ft 466 kts 173°
2026-05-04 18:03 47.68074 22.09050 37052 ft 466 kts 173°
2026-05-04 18:04 47.61655 22.10105 37055 ft 466 kts 173°
2026-05-04 18:04 47.55260 22.11644 37046 ft 465 kts 162°
2026-05-04 18:05 47.52213 22.13082 37061 ft 465 kts 161°
2026-05-04 18:05 47.46077 22.16118 37057 ft 465 kts 161°
2026-05-04 18:06 47.36837 22.20624 37055 ft 466 kts 161°
2026-05-04 18:06 47.30696 22.23552 37052 ft 466 kts 161°
2026-05-04 18:07 47.24515 22.26478 37068 ft 466 kts 161°
2026-05-04 18:07 47.18337 22.29396 37069 ft 466 kts 161°
2026-05-04 18:08 47.12147 22.32314 37067 ft 467 kts 161°
2026-05-04 18:08 47.05949 22.35230 37073 ft 467 kts 161°
2026-05-04 18:09 46.93590 22.41023 37074 ft 467 kts 161°
2026-05-04 18:10 46.87389 22.43919 37083 ft 467 kts 161°
2026-05-04 18:10 46.81225 22.46791 37078 ft 467 kts 161°
2026-05-04 18:11 46.75016 22.49677 37085 ft 467 kts 161°
2026-05-04 18:11 46.68855 22.52533 37093 ft 467 kts 162°
2026-05-04 18:12 46.62665 22.55397 37087 ft 466 kts 162°
2026-05-04 18:12 46.56475 22.58253 37103 ft 465 kts 162°
2026-05-04 18:13 46.50330 22.61082 37101 ft 465 kts 162°
2026-05-04 18:14 46.41057 22.65338 37096 ft 465 kts 162°
2026-05-04 18:14 46.34882 22.68163 37088 ft 464 kts 162°
2026-05-04 18:15 46.22597 22.73765 37089 ft 463 kts 162°
2026-05-04 18:16 46.16444 22.76561 37088 ft 463 kts 162°
2026-05-04 18:16 46.10282 22.79354 37081 ft 463 kts 162°
2026-05-04 18:17 46.01037 22.83533 37084 ft 464 kts 162°
2026-05-04 18:18 45.91811 22.87688 37080 ft 464 kts 162°
2026-05-04 18:18 45.85634 22.90462 37077 ft 465 kts 162°
2026-05-04 18:19 45.76388 22.94602 37096 ft 465 kts 162°
2026-05-04 18:19 45.70194 22.97368 37091 ft 466 kts 162°
2026-05-04 18:20 45.63987 23.00133 37084 ft 467 kts 162°
2026-05-04 18:20 45.57780 23.02891 37102 ft 467 kts 162°
2026-05-04 18:21 45.51593 23.05634 37095 ft 467 kts 162°
2026-05-04 18:21 45.45366 23.08389 37097 ft 468 kts 162°
2026-05-04 18:22 45.39139 23.11137 37098 ft 469 kts 162°
2026-05-04 18:22 45.32938 23.13868 37093 ft 469 kts 162°
2026-05-04 18:23 45.26693 23.16611 37083 ft 469 kts 162°
2026-05-04 18:23 45.20441 23.19352 37067 ft 469 kts 162°
2026-05-04 18:24 45.14242 23.22062 37070 ft 468 kts 162°
2026-05-04 18:24 45.08010 23.24781 37059 ft 467 kts 162°
2026-05-04 18:25 45.01796 23.27486 37053 ft 466 kts 162°
2026-05-04 18:25 44.95592 23.30181 37057 ft 466 kts 162°
2026-05-04 18:26 44.89429 23.32851 37043 ft 465 kts 162°
2026-05-04 18:26 44.83234 23.35529 37053 ft 464 kts 162°
2026-05-04 18:27 44.77090 23.38180 37061 ft 464 kts 162°
2026-05-04 18:27 44.70910 23.40841 37036 ft 464 kts 162°
2026-05-04 18:28 44.64729 23.43495 37045 ft 464 kts 162°
2026-05-04 18:28 44.58555 23.46140 37046 ft 463 kts 162°
2026-05-04 18:29 44.52420 23.48764 37046 ft 463 kts 162°
2026-05-04 18:29 44.46239 23.51401 37040 ft 464 kts 162°
2026-05-04 18:30 44.36995 23.55333 37038 ft 464 kts 163°
2026-05-04 18:31 44.30795 23.57963 37034 ft 464 kts 163°
2026-05-04 18:31 44.24595 23.60588 37005 ft 464 kts 163°
2026-05-04 18:31 44.21489 23.61901 36337 ft 469 kts 163°
2026-05-04 18:32 44.18418 23.63198 35818 ft 465 kts 163°
2026-05-04 18:32 44.15304 23.64511 35156 ft 466 kts 163°
2026-05-04 18:32 44.12199 23.65819 34522 ft 466 kts 163°
2026-05-04 18:32 44.09087 23.67129 33884 ft 465 kts 163°
2026-05-04 18:33 44.06012 23.68458 33392 ft 459 kts 162°
2026-05-04 18:33 44.03018 23.70001 32820 ft 456 kts 159°
2026-05-04 18:33 44.00129 23.71649 32370 ft 451 kts 158°
2026-05-04 18:33 43.97255 23.73339 31918 ft 445 kts 158°
2026-05-04 18:34 43.94422 23.75003 31452 ft 440 kts 158°
2026-05-04 18:34 43.91600 23.76640 31004 ft 435 kts 159°
2026-05-04 18:34 43.88812 23.78234 30562 ft 430 kts 159°
2026-05-04 18:34 43.86061 23.79790 30126 ft 426 kts 160°
2026-05-04 18:35 43.83321 23.81328 29631 ft 421 kts 159°
2026-05-04 18:35 43.80625 23.82835 29176 ft 415 kts 159°
2026-05-04 18:35 43.77956 23.84324 28735 ft 410 kts 159°
2026-05-04 18:35 43.75354 23.85774 28290 ft 406 kts 159°
2026-05-04 18:36 43.72743 23.87227 27838 ft 402 kts 159°
2026-05-04 18:36 43.70156 23.88667 27393 ft 399 kts 159°
2026-05-04 18:36 43.67591 23.90093 26973 ft 396 kts 159°
2026-05-04 18:36 43.65033 23.91514 26522 ft 394 kts 159°
2026-05-04 18:37 43.62503 23.92919 26096 ft 391 kts 159°
2026-05-04 18:37 43.59981 23.94317 25672 ft 389 kts 159°
2026-05-04 18:37 43.57473 23.95707 25260 ft 387 kts 158°
2026-05-04 18:37 43.54974 23.97091 24840 ft 386 kts 158°
2026-05-04 18:38 43.52483 23.98469 24419 ft 386 kts 158°
2026-05-04 18:38 43.50017 23.99831 23983 ft 387 kts 158°
2026-05-04 18:38 43.47491 24.01226 23545 ft 395 kts 158°
2026-05-04 18:38 43.44914 24.02648 23051 ft 399 kts 158°
2026-05-04 18:39 43.42337 24.04069 22586 ft 396 kts 158°
2026-05-04 18:39 43.39819 24.05456 22154 ft 393 kts 157°
2026-05-04 18:39 43.37292 24.06847 21726 ft 390 kts 157°
2026-05-04 18:39 43.34778 24.08229 21314 ft 385 kts 157°
2026-05-04 18:40 43.32301 24.09589 20895 ft 382 kts 157°
2026-05-04 18:40 43.29836 24.10941 20493 ft 379 kts 156°
2026-05-04 18:40 43.27426 24.12263 20068 ft 376 kts 156°
2026-05-04 18:40 43.25002 24.13591 19665 ft 374 kts 156°
2026-05-04 18:41 43.22582 24.14915 19250 ft 371 kts 156°
2026-05-04 18:41 43.20996 24.15783 18990 ft 370 kts 155°
2026-05-04 18:41 43.17803 24.17529 18444 ft 367 kts 155°
2026-05-04 18:41 43.15432 24.18823 17985 ft 365 kts 155°
2026-05-04 18:42 43.13078 24.19979 17531 ft 365 kts 165°
2026-05-04 18:42 43.10543 24.20054 17129 ft 367 kts 189°
2026-05-04 18:42 43.08150 24.18839 16711 ft 367 kts 210°
2026-05-04 18:42 43.06785 24.17460 16379 ft 368 kts 224°
2026-05-04 18:43 43.05110 24.14821 15999 ft 365 kts 231°
2026-05-04 18:43 43.03527 24.12103 15569 ft 364 kts 232°
2026-05-04 18:43 43.01963 24.09380 15163 ft 362 kts 232°
2026-05-04 18:43 43.00407 24.06680 14766 ft 361 kts 231°
2026-05-04 18:44 42.98845 24.03992 14364 ft 360 kts 231°
2026-05-04 18:44 42.97809 24.02221 14086 ft 359 kts 231°
2026-05-04 18:44 42.95742 23.98705 13523 ft 357 kts 231°
2026-05-04 18:44 42.94019 23.96288 13096 ft 354 kts 212°
2026-05-04 18:45 42.91765 23.95087 12642 ft 347 kts 184°
2026-05-04 18:45 42.89387 23.95155 12290 ft 338 kts 169°
2026-05-04 18:45 42.87083 23.95632 12034 ft 331 kts 167°
2026-05-04 18:45 42.84852 23.96141 11925 ft 317 kts 166°
2026-05-04 18:46 42.82698 23.96621 11587 ft 308 kts 167°
2026-05-04 18:46 42.80627 23.97061 11261 ft 301 kts 166°
2026-05-04 18:46 42.78561 23.97484 10874 ft 298 kts 167°
2026-05-04 18:46 42.76515 23.97898 10459 ft 297 kts 167°
2026-05-04 18:47 42.74464 23.98289 9983 ft 297 kts 170°
2026-05-04 18:47 42.72393 23.98270 9413 ft 299 kts 182°
2026-05-04 18:47 42.70316 23.97956 8838 ft 301 kts 191°
2026-05-04 18:47 42.68445 23.96751 8387 ft 297 kts 221°
2026-05-04 18:48 42.67183 23.94610 8023 ft 287 kts 247°
2026-05-04 18:48 42.66589 23.92080 7619 ft 277 kts 268°
2026-05-04 18:48 42.66654 23.89544 7172 ft 270 kts 281°
2026-05-04 18:48 42.66921 23.87046 6849 ft 265 kts 281°
2026-05-04 18:49 42.67135 23.84569 6536 ft 262 kts 278°
2026-05-04 18:49 42.67295 23.82117 6288 ft 260 kts 277°
2026-05-04 18:49 42.67435 23.79678 6133 ft 258 kts 277°
2026-05-04 18:49 42.67572 23.77230 6013 ft 261 kts 277°
2026-05-04 18:50 42.67711 23.74775 5708 ft 265 kts 277°
2026-05-04 18:50 42.67852 23.72289 5418 ft 262 kts 276°
2026-05-04 18:50 42.67991 23.69858 5129 ft 254 kts 276°
2026-05-04 18:50 42.68127 23.67499 4844 ft 246 kts 276°
2026-05-04 18:51 42.68259 23.65218 4570 ft 238 kts 276°
2026-05-04 18:51 42.68387 23.63007 4296 ft 227 kts 275°
2026-05-04 18:51 42.68507 23.60937 4080 ft 213 kts 275°
2026-05-04 18:51 42.68620 23.59009 3917 ft 196 kts 275°
2026-05-04 18:52 42.68726 23.57207 3705 ft 189 kts 275°
2026-05-04 18:52 42.68828 23.55481 3430 ft 182 kts 274°
2026-05-04 18:52 42.68926 23.53817 3209 ft 170 kts 274°
2026-05-04 18:52 42.69018 23.52227 2979 ft 167 kts 275°
2026-05-04 18:53 42.69114 23.50682 2777 ft 158 kts 274°
2026-05-04 18:53 42.69197 23.49228 2586 ft 155 kts 274°
2026-05-04 18:53 42.69283 23.47763 2381 ft 155 kts 274°
2026-05-04 18:53 42.69372 23.46303 2181 ft 154 kts 274°
2026-05-04 18:54 42.69459 23.44844 1979 ft 155 kts 274°
2026-05-04 18:54 42.69549 23.43392 1766 ft 150 kts 274°
2026-05-04 18:54 42.69624 23.42132 1741 ft 107 kts 275°
2026-05-04 18:54 42.69668 23.41410 1743 ft 57 kts 275°
2026-05-04 18:55 42.69674 23.40970 1748 ft 37 kts 257°
2026-05-04 18:55 42.69585 23.40648 1745 ft 11 kts 244°
2026-05-04 18:55 42.69555 23.40558 1745 ft 10 kts 246°
2026-05-04 18:56 42.69512 23.40488 1746 ft 10 kts 204°
2026-05-04 18:56 42.69447 23.40459 1747 ft 10 kts 197°
2026-05-04 18:56 42.69380 23.40431 1741 ft 11 kts 196°
2026-05-04 18:56 42.69287 23.40393 1747 ft 15 kts 198°
2026-05-04 18:57 42.69190 23.40352 1748 ft 10 kts 197°
2026-05-04 18:57 42.69137 23.40395 1746 ft 10 kts 107°
2026-05-04 18:57 42.69117 23.40485 1741 ft 10 kts 107°
2026-05-04 18:57 42.69096 23.40578 1748 ft 12 kts 107°
2026-05-04 18:58 42.69071 23.40694 1745 ft 13 kts 107°
2026-05-04 18:58 42.69058 23.40798 1747 ft 6 kts 95°
2026-05-04 18:58 42.69026 23.40828 1745 ft 6 kts 160°
2026-05-04 18:58 42.68995 23.40841 1744 ft 2 kts 162°
2026-05-04 18:59 42.68983 23.40847 1747 ft 2 kts 162°
2026-05-04 18:59 42.68975 23.40850 1743 ft 1 kts 162°
2026-05-04 18:59 42.68974 23.40850 1742 ft 0 kts 162°